Regional Weather Roundup
Issued by NWS Kansas City/Pleasant Hill, MO

Home | Current Version | Previous Version | Graphics & Text | Print | Product List | Glossary Off
Versions: 1 2 3 4 5 6 7 8 9 10 11 12 13 14 15 16 17 18 19 20 21 22 23 24 25 26 27 28 29 30 31 32 33 34 35 36 37 38 39 40 41 42 43 44 45 46 47 48 49 50

000
ASUS43 KEAX 050010
RWREAX

WEATHER ROUNDUP FOR EASTERN KANSAS AND NORTHWEST MISSOURI
NATIONAL WEATHER SERVICE KANSAS CITY/PLEASANT HILL MO
700 PM CDT FRI SEP 04 2015

KSZ040-057-103>105-MOZ028-029-037-043-050100-
...KANSAS CITY METROPOLITAN AREA...

CITY           SKY/WX    TMP DP  RH WIND       PRES   REMARKS
K.C. INTL      FAIR      86  67  52 S10       29.94S
6HR MIN TEMP:  86; 6HR MAX TEMP:  93;

K.C. DOWNTOWN  FAIR      89  66  46 S13       29.93R HX  91
6HR MIN TEMP:  89; 6HR MAX TEMP:  93;

LEES SUMMIT    FAIR      87  65  47 S9        29.96S
6HR MIN TEMP:  87; 6HR MAX TEMP:  91;

OLATHE - IXD   FAIR      85  69  58 S9        29.96R
6HR MIN TEMP:  85; 6HR MAX TEMP:  90;

OLATHE - OJC   FAIR      84  68  58 S8        29.95S
6HR MIN TEMP:  84; 6HR MAX TEMP:  89;

LAWRENCE       FAIR      87  69  54 SE9       29.93R HX  91

$$

MOZ001>008-011>017-020>025-030>033-038>040-044>046-053-054-050100-
...NORTHERN AND CENTRAL MISSOURI...

CITY           SKY/WX    TMP DP  RH WIND       PRES   REMARKS
ST. JOSEPH     FAIR      85  70  60 S8        29.92R
6HR MIN TEMP:  85; 6HR MAX TEMP:  91;

MOSBY          FAIR      86  66  51 S5        29.94R
WARRENSBURG    FAIR      86  66  51 S5        29.96R
WHITEMAN AFB   FAIR      88  69  53 SW7       29.96R HX  92
6HR MIN TEMP:  88; 6HR MAX TEMP:  94;

CLINTON        FAIR      88  72  58 CALM      29.97S HX  94
SEDALIA        FAIR      88  68  51 S7        29.99R HX  91
6HR MIN TEMP:  88; 6HR MAX TEMP:  94;

WARSAW         NOT AVBL
CHILLICOTHE      N/A     88  69  53 S3        29.95S HX  92
6HR MIN TEMP:  88; 6HR MAX TEMP:  94;

KIRKSVILLE     MOCLDY    85  70  60 S6        29.98R
6HR MIN TEMP:  85; 6HR MAX TEMP:  93;


$$

MOZ041-047>049-056>058-063>065-088>090-097-050100-
...EASTERN AND SOUTHERN MISSOURI...

CITY           SKY/WX    TMP DP  RH WIND       PRES   REMARKS
ST. LOUIS INTL FAIR      90  67  46 SW5       29.99S HX  93
6HR MIN TEMP:  90; 6HR MAX TEMP:  96;

SPIRIT OF STL  FAIR      82  75  79 CALM      29.97S
COLUMBIA       FAIR      86  73  65 SE5       29.99R HX  93
JEFFERSON CITY MOCLDY    90  69  50 S6        29.97R HX  94
ROLLA          FAIR      85  69  58 SE6       30.00S
OSAGE BEACH    FAIR      86  66  51 SE3       30.00R
SPRINGFIELD    FAIR      86  68  54 S7        30.00R
BRANSON        PTCLDY    84  68  58 SE6       30.02S
JOPLIN         FAIR      85  71  63 S5        29.97S HX  90
WEST PLAINS    FAIR      84  69  60 E3        30.03S

$$

IAZ060-094-KSZ022-034>040-054-083-096-NEZ052-066-093-050100-
...KANSAS...SOUTHEAST NEBRASKA AND IOWA...

CITY           SKY/WX    TMP DP  RH WIND       PRES   REMARKS
TOPEKA         FAIR      87  68  52 SE12      29.91S HX  90
6HR MIN TEMP:  87; 6HR MAX TEMP:  92;

MANHATTAN      FAIR      91  65  41 S10       29.87R HX  93
EMPORIA        FAIR      86  68  54 S14G21    29.92R
CHANUTE        FAIR      85  71  63 S9        29.95S HX  90
WICHITA        FAIR      90  65  43 S15       29.89R HX  92
OMAHA          MOCLDY    86  70  58 SE20      29.86R HX  90
LINCOLN        FAIR      88  65  46 S17       29.85R HX  90
FALLS CITY     FAIR      88  67  49 S14G23    29.89R HX  91
LAMONI         FAIR      85  70  60 S6        29.95R
DES MOINES     FAIR      87  71  58 S7        29.93S HX  93

$$




USA.gov is the U.S. government's official web portal to all federal, state and local government web resources and services.